^^
Datos históricos de la estación: Murcia-Puente Tocinos
Diario Informe para Marzo 29, 2019 Unidades:  Métrico    Inglés   Ambas
Diario Semanal Mensual Anual Configurable
  Máximo: Mínimo: Media:
Temperatura: 16.8 °C 9.2 °C 12.8 °C
Punto de rocio: 8.1 °C 3.7 °C 6.5 °C
Humedad: 81% 50% 66%
Velocidad viento: 20.1km/h 0.0km/h 8.4km/h
Racha viento: 35.2km/h - -
Viento- - SE
Presión: 1026.3 hPa 1022.5 hPa -
Precipitación: 0.0 mm    
Historical Graphs
 
 
Tabla de datos para Marzo 29, 2019
Hora Temperatura Punto de rocio Presión Viento Velocidad viento Racha viento Humedad Intensidad lluvia(por hora) Nubes
00:00 11.2 °C 7.7 °C 1026.0 hPa NW 3.2 km/h 6.4 km/h 79% 0.0 mm CLR
00:05 11.1 °C 7.8 °C 1025.9 hPa NW 2.9 km/h 3.7 km/h 80% 0.0 mm CLR
00:10 11.1 °C 7.8 °C 1025.9 hPa NW 2.3 km/h   80% 0.0 mm CLR
00:15 11.1 °C 7.8 °C 1025.9 hPa NW 2.3 km/h   80% 0.0 mm CLR
00:20 11.2 °C 7.9 °C 1025.9 hPa Calm   1.9 km/h 80% 0.0 mm CLR
00:25 11.2 °C 7.9 °C 1025.9 hPa Calm   3.7 km/h 80% 0.0 mm CLR
00:30 11.1 °C 7.8 °C 1025.9 hPa Calm   1.9 km/h 80% 0.0 mm CLR
00:35 11.1 °C 7.8 °C 1025.9 hPa Calm   3.7 km/h 80% 0.0 mm CLR
00:40 11.0 °C 7.7 °C 1025.9 hPa NW 2.3 km/h   80% 0.0 mm CLR
00:45 11.0 °C 7.9 °C 1025.9 hPa NW 2.3 km/h   81% 0.0 mm CLR
00:50 11.0 °C 7.9 °C 1025.7 hPa Calm     81% 0.0 mm CLR
00:55 11.0 °C 7.9 °C 1025.7 hPa Calm   3.2 km/h 81% 0.0 mm CLR
01:00 11.0 °C 7.9 °C 1025.7 hPa Calm   3.2 km/h 81% 0.0 mm CLR
01:05 11.0 °C 7.9 °C 1025.6 hPa Calm     81% 0.0 mm CLR
01:10 11.0 °C 7.9 °C 1025.6 hPa Calm     81% 0.0 mm CLR
01:15 11.0 °C 7.9 °C 1025.6 hPa Calm     81% 0.0 mm CLR
01:20 11.0 °C 7.7 °C 1025.6 hPa Calm   5.6 km/h 80% 0.0 mm CLR
01:25 10.9 °C 7.6 °C 1025.6 hPa Calm   7.4 km/h 80% 0.0 mm CLR
01:30 10.9 °C 7.4 °C 1025.6 hPa South 3.9 km/h 5.8 km/h 79% 0.0 mm CLR
01:35 10.8 °C 7.3 °C 1025.5 hPa SSE 3.9 km/h 4.7 km/h 79% 0.0 mm CLR
01:40 10.8 °C 7.3 °C 1025.5 hPa SSE 3.2 km/h   79% 0.0 mm CLR
01:45 10.8 °C 7.5 °C 1025.5 hPa SSE 3.2 km/h   80% 0.0 mm CLR
01:50 10.8 °C 7.5 °C 1025.4 hPa Calm     80% 0.0 mm CLR
01:55 10.8 °C 7.3 °C 1025.4 hPa Calm     79% 0.0 mm CLR
02:00 10.8 °C 7.3 °C 1025.4 hPa Calm   6.4 km/h 79% 0.0 mm CLR
02:05 10.8 °C 7.3 °C 1025.4 hPa Calm   7.4 km/h 79% 0.0 mm CLR
02:10 10.8 °C 7.3 °C 1025.4 hPa South 3.2 km/h 5.6 km/h 79% 0.0 mm CLR
02:15 10.8 °C 7.1 °C 1025.4 hPa SSW 3.2 km/h 9.3 km/h 78% 0.0 mm CLR
02:20 10.7 °C 7.2 °C 1025.4 hPa SSW 5.0 km/h 9.3 km/h 79% 0.0 mm CLR
02:25 10.7 °C 7.2 °C 1025.4 hPa SSW 5.0 km/h 9.3 km/h 79% 0.0 mm CLR
02:30 10.7 °C 7.2 °C 1025.4 hPa SSW 5.8 km/h 7.4 km/h 79% 0.0 mm CLR
02:35 10.7 °C 7.2 °C 1025.2 hPa SSW 5.8 km/h 9.3 km/h 79% 0.0 mm CLR
02:40 10.7 °C 7.2 °C 1025.2 hPa SSW 6.4 km/h 9.3 km/h 79% 0.0 mm CLR
02:45 10.7 °C 7.2 °C 1025.2 hPa SSW 6.4 km/h 9.3 km/h 79% 0.0 mm CLR
02:50 10.7 °C 7.0 °C 1025.1 hPa SSW 6.9 km/h 5.6 km/h 78% 0.0 mm CLR
02:55 10.7 °C 7.0 °C 1025.1 hPa SE 6.9 km/h 7.4 km/h 78% 0.0 mm CLR
03:00 10.7 °C 6.8 °C 1025.1 hPa South 3.2 km/h 12.9 km/h 77% 0.0 mm CLR
03:05 10.5 °C 6.8 °C 1025.1 hPa South 3.2 km/h 7.6 km/h 78% 0.0 mm CLR
03:10 10.4 °C 6.7 °C 1025.1 hPa SW 7.6 km/h 9.3 km/h 78% 0.0 mm CLR
03:15 10.4 °C 6.7 °C 1025.1 hPa SSW 7.6 km/h 13.0 km/h 78% 0.0 mm CLR
03:20 10.3 °C 6.6 °C 1025.2 hPa West 6.9 km/h 5.8 km/h 78% 0.0 mm CLR
03:25 10.3 °C 6.6 °C 1025.2 hPa SW 6.9 km/h 11.1 km/h 78% 0.0 mm CLR
03:30 10.4 °C 6.7 °C 1025.2 hPa SW 5.8 km/h 13.0 km/h 78% 0.0 mm CLR
03:35 10.4 °C 6.9 °C 1025.1 hPa WSW 5.8 km/h 7.4 km/h 79% 0.0 mm CLR
03:40 10.4 °C 6.7 °C 1025.1 hPa SSW 6.9 km/h 9.3 km/h 78% 0.0 mm CLR
03:45 10.4 °C 6.7 °C 1025.1 hPa South 6.9 km/h 11.1 km/h 78% 0.0 mm CLR
03:50 10.4 °C 6.7 °C 1025.1 hPa SSW 5.8 km/h 7.4 km/h 78% 0.0 mm CLR
03:55 10.4 °C 6.7 °C 1025.1 hPa SW 5.8 km/h 7.4 km/h 78% 0.0 mm CLR
04:00 10.5 °C 6.8 °C 1025.1 hPa SW 3.2 km/h 8.0 km/h 78% 0.0 mm CLR
04:05 10.5 °C 6.8 °C 1025.0 hPa SW 3.9 km/h 5.6 km/h 78% 0.0 mm CLR
04:10 10.5 °C 6.8 °C 1025.0 hPa SW 3.9 km/h 3.7 km/h 78% 0.0 mm CLR
04:15 10.6 °C 6.9 °C 1025.0 hPa SSE 3.9 km/h 5.0 km/h 78% 0.0 mm CLR
04:20 10.5 °C 6.6 °C 1025.0 hPa SSW 3.9 km/h 11.1 km/h 77% 0.0 mm CLR
04:25 10.4 °C 6.7 °C 1025.0 hPa SSW 3.9 km/h 9.3 km/h 78% 0.0 mm CLR
04:30 10.4 °C 6.6 °C 1025.0 hPa SSW 5.0 km/h 9.3 km/h 77% 0.0 mm CLR
04:35 10.4 °C 6.7 °C 1025.0 hPa SSW 5.0 km/h 9.3 km/h 78% 0.0 mm CLR
04:40 10.3 °C 6.4 °C 1025.0 hPa SSW 6.9 km/h 9.3 km/h 77% 0.0 mm CLR
04:45 10.3 °C 6.4 °C 1025.0 hPa SW 6.9 km/h 7.4 km/h 77% 0.0 mm CLR
04:50 10.3 °C 6.4 °C 1024.9 hPa WSW 5.8 km/h 5.6 km/h 77% 0.0 mm CLR
04:55 10.3 °C 6.4 °C 1024.9 hPa WSW 5.8 km/h 3.7 km/h 77% 0.0 mm CLR
05:00 10.3 °C 6.4 °C 1024.9 hPa WSW 3.2 km/h 4.8 km/h 77% 0.0 mm CLR
05:05 10.3 °C 6.3 °C 1024.8 hPa WSW 2.9 km/h 7.4 km/h 76% 0.0 mm CLR
05:10 10.2 °C 6.2 °C 1024.8 hPa WSW 3.9 km/h 5.6 km/h 76% 0.0 mm CLR
05:15 10.2 °C 6.2 °C 1024.8 hPa South 3.9 km/h 7.4 km/h 76% 0.0 mm CLR
05:20 10.1 °C 6.1 °C 1025.0 hPa SSW 5.0 km/h 9.3 km/h 76% 0.0 mm CLR
05:25 10.0 °C 5.8 °C 1025.0 hPa SSW 5.0 km/h 10.3 km/h 75% 0.0 mm CLR
05:30 9.9 °C 5.7 °C 1025.0 hPa South 6.9 km/h 11.1 km/h 75% 0.0 mm CLR
05:35 9.8 °C 5.6 °C 1025.1 hPa South 6.9 km/h 11.1 km/h 75% 0.0 mm CLR
05:40 9.7 °C 5.3 °C 1025.1 hPa South 7.6 km/h 7.4 km/h 74% 0.0 mm CLR
05:45 9.6 °C 5.2 °C 1025.1 hPa SSW 7.6 km/h 11.1 km/h 74% 0.0 mm CLR
05:50 9.6 °C 5.2 °C 1025.0 hPa South 6.4 km/h 7.4 km/h 74% 0.0 mm CLR
05:55 9.5 °C 5.1 °C 1025.0 hPa South 6.4 km/h 7.4 km/h 74% 0.0 mm CLR
06:00 9.5 °C 5.3 °C 1025.0 hPa South 4.8 km/h 8.0 km/h 75% 0.0 mm CLR
06:05 9.4 °C 5.2 °C 1025.0 hPa South 5.0 km/h 14.8 km/h 75% 0.0 mm CLR
06:10 9.4 °C 5.2 °C 1025.0 hPa SSW 7.6 km/h 7.6 km/h 75% 0.0 mm CLR
06:15 9.4 °C 5.2 °C 1025.0 hPa South 7.6 km/h 11.1 km/h 75% 0.0 mm CLR
06:20 9.3 °C 5.1 °C 1025.1 hPa SSW 7.6 km/h 11.1 km/h 75% 0.0 mm CLR
06:25 9.3 °C 5.1 °C 1025.1 hPa SSE 7.6 km/h 13.0 km/h 75% 0.0 mm CLR
06:30 9.2 °C 5.0 °C 1025.1 hPa SSW 8.4 km/h 9.3 km/h 75% 0.0 mm CLR
06:35 9.2 °C 5.0 °C 1025.3 hPa SSW 8.4 km/h 9.3 km/h 75% 0.0 mm CLR
06:40 9.2 °C 5.0 °C 1025.3 hPa South 6.9 km/h 9.3 km/h 75% 0.0 mm CLR
06:45 9.2 °C 4.8 °C 1025.3 hPa SSW 6.9 km/h 11.1 km/h 74% 0.0 mm CLR
06:50 9.2 °C 4.6 °C 1025.3 hPa SW 7.6 km/h 11.1 km/h 73% 0.0 mm CLR
06:55 9.3 °C 4.7 °C 1025.3 hPa SSW 7.6 km/h 9.3 km/h 73% 0.0 mm CLR
07:00 9.3 °C 4.7 °C 1025.3 hPa SSW 8.0 km/h 11.3 km/h 73% 0.0 mm CLR
07:05 9.4 °C 4.8 °C 1025.4 hPa SW 6.9 km/h 13.0 km/h 73% 0.0 mm CLR
07:10 9.4 °C 4.6 °C 1025.4 hPa SW 8.4 km/h 13.0 km/h 72% 0.0 mm CLR
07:15 9.4 °C 4.6 °C 1025.4 hPa SW 8.4 km/h 9.3 km/h 72% 0.0 mm CLR
07:20 9.4 °C 4.6 °C 1025.6 hPa SW 6.4 km/h 13.0 km/h 72% 0.0 mm CLR
07:25 9.4 °C 4.6 °C 1025.6 hPa South 6.4 km/h 7.4 km/h 72% 0.0 mm CLR
07:30 9.5 °C 4.7 °C 1025.6 hPa SW 6.4 km/h 9.3 km/h 72% 0.0 mm CLR
07:35 9.6 °C 4.8 °C 1025.7 hPa SW 6.4 km/h 8.4 km/h 72% 0.0 mm CLR
07:40 9.6 °C 4.6 °C 1025.7 hPa SW 4.7 km/h 7.4 km/h 71% 0.0 mm CLR
07:45 9.7 °C 4.7 °C 1025.7 hPa WSW 4.7 km/h 7.4 km/h 71% 0.0 mm CLR
07:50 9.7 °C 4.5 °C 1025.8 hPa SSW 5.0 km/h 9.3 km/h 70% 0.0 mm CLR
07:55 9.8 °C 4.2 °C 1025.8 hPa SW 5.0 km/h 8.4 km/h 68% 0.0 mm CLR
08:00 9.8 °C 3.9 °C 1025.8 hPa WSW 4.8 km/h 12.9 km/h 67% 0.0 mm CLR
08:05 9.8 °C 3.7 °C 1025.9 hPa WSW 5.8 km/h 9.3 km/h 66% 0.0 mm CLR
08:10 9.9 °C 3.8 °C 1025.9 hPa WSW 7.6 km/h 11.1 km/h 66% 0.0 mm CLR
08:15 9.9 °C 3.8 °C 1025.9 hPa SW 7.6 km/h 13.0 km/h 66% 0.0 mm CLR
08:20 10.1 °C 4.1 °C 1025.8 hPa SW 8.7 km/h 11.1 km/h 66% 0.0 mm CLR
08:25 10.2 °C 4.6 °C 1025.8 hPa WSW 8.7 km/h 9.3 km/h 68% 0.0 mm CLR
08:30 10.2 °C 4.8 °C 1025.8 hPa SW 6.4 km/h 9.3 km/h 69% 0.0 mm CLR
08:35 10.3 °C 4.8 °C 1025.8 hPa SW 6.4 km/h 7.4 km/h 69% 0.0 mm CLR
08:40 10.5 °C 4.8 °C 1025.8 hPa SW 5.0 km/h 7.6 km/h 68% 0.0 mm CLR
08:45 10.6 °C 4.9 °C 1025.8 hPa SSW 5.0 km/h 11.1 km/h 68% 0.0 mm CLR
08:50 10.6 °C 4.9 °C 1025.9 hPa SSW 6.9 km/h 11.1 km/h 68% 0.0 mm CLR
08:55 10.6 °C 4.9 °C 1025.9 hPa WSW 6.9 km/h 11.1 km/h 68% 0.0 mm CLR
09:00 10.7 °C 4.8 °C 1025.9 hPa SSW 8.0 km/h 11.3 km/h 67% 0.0 mm CLR
09:05 10.7 °C 4.8 °C 1025.9 hPa SSW 6.4 km/h 9.3 km/h 67% 0.0 mm CLR
09:10 10.7 °C 4.8 °C 1025.9 hPa SW 6.9 km/h 9.3 km/h 67% 0.0 mm CLR
09:15 10.8 °C 4.9 °C 1025.9 hPa SSW 6.9 km/h 11.1 km/h 67% 0.0 mm CLR
09:20 10.9 °C 5.0 °C 1025.9 hPa South 6.9 km/h 13.0 km/h 67% 0.0 mm CLR
09:25 11.1 °C 5.0 °C 1025.9 hPa South 6.9 km/h 9.3 km/h 66% 0.0 mm CLR
09:30 11.2 °C 4.8 °C 1025.9 hPa South 8.7 km/h 13.0 km/h 65% 0.0 mm CLR
09:35 11.1 °C 5.0 °C 1026.1 hPa SSW 8.7 km/h 16.7 km/h 66% 0.0 mm CLR
09:40 11.1 °C 5.0 °C 1026.1 hPa SSE 10.3 km/h 11.1 km/h 66% 0.0 mm CLR
09:45 11.2 °C 5.1 °C 1026.1 hPa SSW 10.3 km/h 14.0 km/h 66% 0.0 mm CLR
09:50 11.3 °C 4.9 °C 1026.2 hPa SW 9.5 km/h 14.8 km/h 65% 0.0 mm CLR
09:55 11.3 °C 4.7 °C 1026.2 hPa SSW 9.5 km/h 13.0 km/h 64% 0.0 mm CLR
10:00 11.4 °C 4.8 °C 1026.2 hPa SSW 11.3 km/h 16.1 km/h 64% 0.0 mm CLR
10:05 11.5 °C 4.7 °C 1026.3 hPa WSW 10.3 km/h 11.1 km/h 63% 0.0 mm CLR
10:10 11.8 °C 4.7 °C 1026.3 hPa SSW 8.4 km/h 11.1 km/h 62% 0.0 mm CLR
10:15 12.1 °C 4.8 °C 1026.3 hPa WSW 8.4 km/h 9.3 km/h 61% 0.0 mm CLR
10:20 12.3 °C 5.0 °C 1026.1 hPa WSW 6.9 km/h 7.4 km/h 61% 0.0 mm CLR
10:25 12.8 °C 5.0 °C 1026.1 hPa WNW 6.9 km/h 7.4 km/h 59% 0.0 mm CLR
10:30 13.1 °C 5.0 °C 1026.1 hPa SW 4.7 km/h 7.4 km/h 58% 0.0 mm CLR
10:35 13.4 °C 5.6 °C 1026.1 hPa SSW 4.7 km/h 5.6 km/h 59% 0.0 mm CLR
10:40 13.8 °C 5.9 °C 1026.1 hPa NW 3.2 km/h 7.4 km/h 59% 0.0 mm CLR
10:45 14.2 °C 6.8 °C 1026.1 hPa ENE 3.2 km/h 4.7 km/h 61% 0.0 mm CLR
10:50 14.4 °C 6.5 °C 1026.0 hPa West 3.9 km/h 9.3 km/h 59% 0.0 mm CLR
10:55 14.3 °C 6.9 °C 1026.0 hPa NE 3.9 km/h 16.7 km/h 61% 0.0 mm CLR
11:00 14.3 °C 7.1 °C 1026.0 hPa NNE 8.0 km/h 19.3 km/h 62% 0.0 mm CLR
11:05 14.1 °C 6.9 °C 1025.8 hPa North 8.4 km/h 9.3 km/h 62% 0.0 mm CLR
11:10 14.1 °C 7.2 °C 1025.8 hPa NNE 9.5 km/h 16.7 km/h 63% 0.0 mm CLR
11:15 14.4 °C 7.4 °C 1025.8 hPa North 9.5 km/h 14.0 km/h 63% 0.0 mm CLR
11:20 14.4 °C 7.4 °C 1025.7 hPa NE 8.4 km/h 16.7 km/h 63% 0.0 mm CLR
11:25 14.5 °C 7.6 °C 1025.7 hPa ENE 8.4 km/h 16.7 km/h 63% 0.0 mm CLR
11:30 14.7 °C 7.7 °C 1025.7 hPa East 8.7 km/h 14.8 km/h 63% 0.0 mm CLR
11:35 14.7 °C 7.7 °C 1025.4 hPa East 8.7 km/h 16.7 km/h 63% 0.0 mm CLR
11:40 14.6 °C 7.6 °C 1025.4 hPa NNE 10.3 km/h 16.7 km/h 63% 0.0 mm CLR
11:45 14.7 °C 7.9 °C 1025.4 hPa NNE 10.3 km/h 16.1 km/h 64% 0.0 mm CLR
11:50 14.7 °C 7.7 °C 1025.3 hPa NE 10.3 km/h 22.5 km/h 63% 0.0 mm CLR
11:55 14.8 °C 7.8 °C 1025.3 hPa NE 10.3 km/h 23.7 km/h 63% 0.0 mm CLR
12:00 14.7 °C 7.7 °C 1025.3 hPa NE 12.9 km/h 24.1 km/h 63% 0.0 mm CLR
12:05 14.7 °C 7.7 °C 1025.2 hPa NE 12.2 km/h 14.8 km/h 63% 0.0 mm CLR
12:10 14.8 °C 7.8 °C 1025.2 hPa ENE 9.5 km/h 16.7 km/h 63% 0.0 mm CLR
12:15 15.1 °C 7.9 °C 1025.2 hPa NE 9.5 km/h 29.1 km/h 62% 0.0 mm CLR
12:20 15.1 °C 7.6 °C 1024.9 hPa NNE 16.1 km/h 24.1 km/h 61% 0.0 mm CLR
12:25 15.3 °C 7.6 °C 1024.9 hPa NE 16.1 km/h 29.6 km/h 60% 0.0 mm CLR
12:30 15.4 °C 7.7 °C 1024.9 hPa NE 17.2 km/h 28.6 km/h 60% 0.0 mm CLR
12:35 15.6 °C 7.6 °C 1024.8 hPa NE 17.2 km/h 29.6 km/h 59% 0.0 mm CLR
12:40 15.6 °C 8.1 °C 1024.8 hPa NE 19.0 km/h 26.2 km/h 61% 0.0 mm CLR
12:45 15.6 °C 7.8 °C 1024.8 hPa NE 19.0 km/h 29.1 km/h 60% 0.0 mm CLR
12:50 15.5 °C 7.8 °C 1024.6 hPa North 19.0 km/h 27.8 km/h 60% 0.0 mm CLR
12:55 15.5 °C 7.8 °C 1024.6 hPa NE 19.0 km/h 20.9 km/h 60% 0.0 mm CLR
13:00 15.6 °C 7.4 °C 1024.6 hPa NE 16.1 km/h 30.6 km/h 58% 0.0 mm CLR
13:05 16.1 °C 7.1 °C 1024.4 hPa East 16.4 km/h 27.8 km/h 55% 0.0 mm CLR
13:10 16.3 °C 6.9 °C 1024.4 hPa ENE 15.6 km/h 29.6 km/h 54% 0.0 mm CLR
13:15 16.4 °C 7.1 °C 1024.4 hPa NE 15.6 km/h 29.6 km/h 54% 0.0 mm CLR
13:20 16.6 °C 6.7 °C 1024.3 hPa NE 15.6 km/h 29.6 km/h 52% 0.0 mm CLR
13:25 16.2 °C 7.2 °C 1024.3 hPa NE 15.6 km/h 33.3 km/h 55% 0.0 mm CLR
13:30 16.1 °C 7.1 °C 1024.3 hPa NE 20.1 km/h 29.6 km/h 55% 0.0 mm CLR
13:35 16.3 °C 6.9 °C 1024.1 hPa NNE 20.1 km/h 24.1 km/h 54% 0.0 mm CLR
13:40 16.5 °C 6.6 °C 1024.1 hPa WNW 18.0 km/h 20.4 km/h 52% 0.0 mm CLR
13:45 16.6 °C 6.4 °C 1024.1 hPa NE 18.0 km/h 35.2 km/h 51% 0.0 mm CLR
13:50 16.6 °C 7.2 °C 1024.0 hPa East 19.0 km/h 33.3 km/h 54% 0.0 mm CLR
13:55 16.6 °C 6.7 °C 1024.0 hPa ENE 19.0 km/h 31.5 km/h 52% 0.0 mm CLR
14:00 16.4 °C 6.2 °C 1024.0 hPa NE 19.3 km/h 30.6 km/h 51% 0.0 mm CLR
14:05 16.5 °C 6.6 °C 1023.8 hPa ENE 19.0 km/h 29.6 km/h 52% 0.0 mm CLR
14:10 16.4 °C 6.8 °C 1023.8 hPa NE 16.4 km/h 18.5 km/h 53% 0.0 mm CLR
14:15 16.5 °C 6.6 °C 1023.8 hPa NE 16.4 km/h 25.9 km/h 52% 0.0 mm CLR
14:20 16.4 °C 6.8 °C 1023.6 hPa NE 14.8 km/h 18.5 km/h 53% 0.0 mm CLR
14:25 16.7 °C 7.1 °C 1023.6 hPa ENE 14.8 km/h 33.3 km/h 53% 0.0 mm CLR
14:30 16.4 °C 6.5 °C 1023.6 hPa NE 18.0 km/h 24.1 km/h 52% 0.0 mm CLR
14:35 16.6 °C 7.0 °C 1023.4 hPa East 18.0 km/h 21.7 km/h 53% 0.0 mm CLR
14:40 16.7 °C 6.8 °C 1023.4 hPa NNE 15.6 km/h 31.5 km/h 52% 0.0 mm CLR
14:45 16.7 °C 6.5 °C 1023.4 hPa NE 15.6 km/h 24.1 km/h 51% 0.0 mm CLR
14:50 16.7 °C 7.1 °C 1023.2 hPa ENE 17.2 km/h 27.8 km/h 53% 0.0 mm CLR
14:55 16.8 °C 7.2 °C 1023.2 hPa NE 17.2 km/h 29.6 km/h 53% 0.0 mm CLR
15:00 16.7 °C 7.3 °C 1023.2 hPa NE 19.3 km/h 30.6 km/h 54% 0.0 mm CLR
15:05 16.4 °C 7.1 °C 1023.1 hPa North 18.0 km/h 22.2 km/h 54% 0.0 mm CLR
15:10 16.7 °C 7.1 °C 1023.1 hPa NE 17.2 km/h 24.1 km/h 53% 0.0 mm CLR
15:15 16.7 °C 7.1 °C 1023.1 hPa NE 17.2 km/h 25.9 km/h 53% 0.0 mm CLR
15:20 16.6 °C 7.0 °C 1023.0 hPa ENE 16.4 km/h 25.9 km/h 53% 0.0 mm CLR
15:25 16.7 °C 6.8 °C 1023.0 hPa NW 16.4 km/h 33.3 km/h 52% 0.0 mm CLR
15:30 16.7 °C 6.5 °C 1023.0 hPa ENE 14.8 km/h 27.8 km/h 51% 0.0 mm CLR
15:35 16.7 °C 7.1 °C 1022.8 hPa NE 14.8 km/h 29.6 km/h 53% 0.0 mm CLR
15:40 16.7 °C 6.8 °C 1022.8 hPa ESE 17.2 km/h 20.4 km/h 52% 0.0 mm CLR
15:45 16.6 °C 7.0 °C 1022.8 hPa ENE 17.2 km/h 27.8 km/h 53% 0.0 mm CLR
15:50 16.5 °C 6.6 °C 1022.7 hPa NNE 16.1 km/h 29.6 km/h 52% 0.0 mm CLR
15:55 16.6 °C 7.2 °C 1022.7 hPa SSE 16.1 km/h 27.8 km/h 54% 0.0 mm CLR
16:00 16.3 °C 6.4 °C 1022.7 hPa NE 16.1 km/h 33.8 km/h 52% 0.0 mm CLR
16:05 16.4 °C 7.1 °C 1022.6 hPa NE 16.4 km/h 33.3 km/h 54% 0.0 mm CLR
16:10 16.2 °C 6.3 °C 1022.6 hPa ENE 16.4 km/h 27.8 km/h 52% 0.0 mm CLR
16:15 16.3 °C 7.2 °C 1022.6 hPa NE 16.4 km/h 27.8 km/h 55% 0.0 mm CLR
16:20 16.3 °C 6.9 °C 1022.7 hPa NE 15.6 km/h 29.6 km/h 54% 0.0 mm CLR
16:25 16.2 °C 6.9 °C 1022.7 hPa NE 15.6 km/h 27.8 km/h 54% 0.0 mm CLR
16:30 16.1 °C 6.8 °C 1022.7 hPa East 16.4 km/h 22.2 km/h 54% 0.0 mm CLR
16:35 16.1 °C 7.1 °C 1022.7 hPa NE 16.4 km/h 25.1 km/h 55% 0.0 mm CLR
16:40 15.9 °C 6.6 °C 1022.7 hPa ENE 16.1 km/h 25.9 km/h 54% 0.0 mm CLR
16:45 16.1 °C 7.1 °C 1022.7 hPa East 16.1 km/h 15.6 km/h 55% 0.0 mm CLR
16:50 16.3 °C 6.9 °C 1022.6 hPa ENE 13.7 km/h 24.1 km/h 54% 0.0 mm CLR
16:55 16.1 °C 6.8 °C 1022.6 hPa NE 13.7 km/h 22.2 km/h 54% 0.0 mm CLR
17:00 15.9 °C 6.6 °C 1022.6 hPa NE 16.1 km/h 33.8 km/h 54% 0.0 mm CLR
17:05 15.8 °C 6.8 °C 1022.6 hPa ENE 16.4 km/h 22.2 km/h 55% 0.0 mm CLR
17:10 15.8 °C 6.8 °C 1022.6 hPa East 15.6 km/h 25.9 km/h 55% 0.0 mm CLR
17:15 15.9 °C 6.6 °C 1022.6 hPa NE 15.6 km/h 29.6 km/h 54% 0.0 mm CLR
17:20 15.8 °C 6.5 °C 1022.6 hPa ENE 16.1 km/h 24.1 km/h 54% 0.0 mm CLR
17:25 15.7 °C 6.4 °C 1022.6 hPa ENE 16.1 km/h 22.2 km/h 54% 0.0 mm CLR
17:30 15.8 °C 6.5 °C 1022.6 hPa North 16.1 km/h 20.4 km/h 54% 0.0 mm CLR
17:35 15.8 °C 6.2 °C 1022.6 hPa NE 16.1 km/h 29.6 km/h 53% 0.0 mm CLR
17:40 15.8 °C 6.5 °C 1022.6 hPa ESE 13.0 km/h 20.4 km/h 54% 0.0 mm CLR
17:45 15.8 °C 6.2 °C 1022.6 hPa ESE 13.0 km/h 25.1 km/h 53% 0.0 mm CLR
17:50 15.7 °C 5.6 °C 1022.6 hPa NE 13.0 km/h 24.1 km/h 51% 0.0 mm CLR
17:55 15.6 °C 5.2 °C 1022.6 hPa ENE 13.0 km/h 29.6 km/h 50% 0.0 mm CLR
18:00 15.5 °C 5.4 °C 1022.6 hPa NE 16.1 km/h 29.0 km/h 51% 0.0 mm CLR
18:05 15.6 °C 5.5 °C 1022.5 hPa ENE 17.2 km/h 24.1 km/h 51% 0.0 mm CLR
18:10 15.5 °C 5.4 °C 1022.5 hPa NE 13.0 km/h 22.2 km/h 51% 0.0 mm CLR
18:15 15.4 °C 5.3 °C 1022.5 hPa NE 13.0 km/h 24.1 km/h 51% 0.0 mm CLR
18:20 15.3 °C 5.2 °C 1022.5 hPa NE 14.8 km/h 20.4 km/h 51% 0.0 mm CLR
18:25 15.3 °C 5.5 °C 1022.5 hPa NNE 14.8 km/h 14.8 km/h 52% 0.0 mm CLR
18:30 15.3 °C 5.8 °C 1022.5 hPa NE 11.9 km/h 18.5 km/h 53% 0.0 mm CLR
18:35 15.3 °C 6.3 °C 1022.7 hPa East 11.9 km/h 20.4 km/h 55% 0.0 mm CLR
18:40 15.2 °C 6.2 °C 1022.7 hPa NE 12.2 km/h 20.4 km/h 55% 0.0 mm CLR
18:45 15.0 °C 6.6 °C 1022.7 hPa ENE 12.2 km/h 29.6 km/h 57% 0.0 mm CLR
18:50 14.9 °C 6.2 °C 1022.6 hPa ENE 16.1 km/h 20.4 km/h 56% 0.0 mm CLR
18:55 14.9 °C 6.4 °C 1022.6 hPa NE 16.1 km/h 22.2 km/h 57% 0.0 mm CLR
19:00 14.8 °C 6.6 °C 1022.6 hPa NE 12.9 km/h 20.9 km/h 58% 0.0 mm CLR
19:05 14.7 °C 6.5 °C 1022.6 hPa NE 12.2 km/h 13.0 km/h 58% 0.0 mm CLR
19:10 14.7 °C 6.5 °C 1022.6 hPa NE 11.1 km/h 18.5 km/h 58% 0.0 mm CLR
19:15 14.6 °C 6.4 °C 1022.6 hPa ENE 11.1 km/h 13.0 km/h 58% 0.0 mm CLR
19:20 14.4 °C 6.5 °C 1022.7 hPa ENE 11.9 km/h 16.7 km/h 59% 0.0 mm CLR
19:25 14.4 °C 6.5 °C 1022.7 hPa ENE 11.9 km/h 14.8 km/h 59% 0.0 mm CLR
19:30 14.3 °C 6.6 °C 1022.7 hPa NE 10.3 km/h 14.8 km/h 60% 0.0 mm CLR
19:35 14.2 °C 6.8 °C 1022.8 hPa NNE 10.3 km/h 13.0 km/h 61% 0.0 mm CLR
19:40 14.1 °C 6.9 °C 1022.8 hPa ENE 9.5 km/h 20.4 km/h 62% 0.0 mm CLR
19:45 13.9 °C 6.7 °C 1022.8 hPa NE 9.5 km/h 13.0 km/h 62% 0.0 mm CLR
19:50 13.9 °C 6.7 °C 1023.0 hPa NE 9.5 km/h 11.1 km/h 62% 0.0 mm CLR
19:55 13.8 °C 6.7 °C 1023.0 hPa NE 9.5 km/h 11.1 km/h 62% 0.0 mm CLR
20:00 13.7 °C 6.8 °C 1023.0 hPa NE 8.0 km/h 11.3 km/h 63% 0.0 mm CLR
20:05 13.6 °C 6.7 °C 1023.2 hPa NNE 7.6 km/h 11.1 km/h 63% 0.0 mm CLR
20:10 13.5 °C 6.6 °C 1023.2 hPa NNE 7.6 km/h 13.0 km/h 63% 0.0 mm CLR
20:15 13.4 °C 6.5 °C 1023.2 hPa ENE 7.6 km/h 9.3 km/h 63% 0.0 mm CLR
20:20 13.4 °C 6.5 °C 1023.4 hPa NE 6.9 km/h 9.3 km/h 63% 0.0 mm CLR
20:25 13.3 °C 6.6 °C 1023.4 hPa NNE 6.9 km/h 9.3 km/h 64% 0.0 mm CLR
20:30 13.3 °C 6.6 °C 1023.4 hPa NNE 6.4 km/h 9.3 km/h 64% 0.0 mm CLR
20:35 13.2 °C 6.8 °C 1023.5 hPa NE 6.4 km/h 9.3 km/h 65% 0.0 mm CLR
20:40 13.2 °C 6.8 °C 1023.5 hPa NNE 6.4 km/h 7.4 km/h 65% 0.0 mm CLR
20:45 13.2 °C 6.8 °C 1023.5 hPa NNE 6.4 km/h 8.4 km/h 65% 0.0 mm CLR
20:50 13.2 °C 6.8 °C 1023.6 hPa NE 5.0 km/h 3.7 km/h 65% 0.0 mm CLR
20:55 13.2 °C 7.0 °C 1023.6 hPa NNE 5.0 km/h 7.4 km/h 66% 0.0 mm CLR
21:00 13.1 °C 6.9 °C 1023.6 hPa NNE 3.2 km/h 8.0 km/h 66% 0.0 mm CLR
21:05 12.9 °C 6.9 °C 1023.8 hPa NNE 4.7 km/h 5.0 km/h 67% 0.0 mm CLR
21:10 12.9 °C 6.9 °C 1023.8 hPa NE 3.2 km/h 3.7 km/h 67% 0.0 mm CLR
21:15 12.9 °C 7.1 °C 1023.8 hPa NE 3.2 km/h 7.4 km/h 68% 0.0 mm CLR
21:20 12.8 °C 7.3 °C 1024.0 hPa NNE 3.2 km/h 7.4 km/h 69% 0.0 mm CLR
21:25 12.8 °C 7.3 °C 1024.0 hPa NNE 3.2 km/h 3.7 km/h 69% 0.0 mm CLR
21:30 12.8 °C 7.3 °C 1024.0 hPa NNE 2.9 km/h   69% 0.0 mm CLR
21:35 12.7 °C 7.2 °C 1024.1 hPa NNE 2.9 km/h   69% 0.0 mm CLR
21:40 12.8 °C 7.4 °C 1024.1 hPa Calm   5.8 km/h 70% 0.0 mm CLR
21:45 12.7 °C 7.4 °C 1024.1 hPa Calm   5.6 km/h 70% 0.0 mm CLR
21:50 12.7 °C 7.2 °C 1024.2 hPa NNE 2.9 km/h 1.9 km/h 69% 0.0 mm CLR
21:55 12.7 °C 7.4 °C 1024.2 hPa NNE 2.9 km/h 3.7 km/h 70% 0.0 mm CLR
22:00 12.6 °C 7.3 °C 1024.2 hPa NNE 1.6 km/h 8.0 km/h 70% 0.0 mm CLR
22:05 12.5 °C 7.2 °C 1024.2 hPa NNE 2.3 km/h 3.7 km/h 70% 0.0 mm CLR
22:10 12.4 °C 7.3 °C 1024.2 hPa NNE 2.3 km/h 3.9 km/h 71% 0.0 mm CLR
22:15 12.4 °C 7.5 °C 1024.2 hPa NNE 2.3 km/h   72% 0.0 mm CLR
22:20 12.4 °C 7.5 °C 1024.3 hPa Calm     72% 0.0 mm CLR
22:25 12.4 °C 7.5 °C 1024.3 hPa Calm   3.2 km/h 72% 0.0 mm CLR
22:30 12.4 °C 7.5 °C 1024.3 hPa Calm   5.6 km/h 72% 0.0 mm CLR
22:35 12.3 °C 7.4 °C 1024.2 hPa Calm     72% 0.0 mm CLR
22:40 12.3 °C 7.4 °C 1024.2 hPa NNE 2.3 km/h 5.6 km/h 72% 0.0 mm CLR
22:45 12.2 °C 7.5 °C 1024.2 hPa NNE 2.3 km/h 3.7 km/h 73% 0.0 mm CLR
22:50 12.2 °C 7.5 °C 1024.0 hPa NNE 2.9 km/h 3.9 km/h 73% 0.0 mm CLR
22:55 12.1 °C 7.6 °C 1024.0 hPa NW 2.9 km/h 7.4 km/h 74% 0.0 mm CLR
23:00 12.0 °C 7.5 °C 1024.0 hPa NNW 3.2 km/h 9.7 km/h 74% 0.0 mm CLR
23:05 11.9 °C 7.4 °C 1023.9 hPa NW 4.7 km/h 3.7 km/h 74% 0.0 mm CLR
23:10 11.8 °C 7.3 °C 1023.9 hPa NW 3.2 km/h 3.7 km/h 74% 0.0 mm CLR
23:15 11.7 °C 7.4 °C 1023.9 hPa NW 3.2 km/h 3.7 km/h 75% 0.0 mm CLR
23:20 11.7 °C 7.4 °C 1024.0 hPa NW 3.2 km/h 1.9 km/h 75% 0.0 mm CLR
23:25 11.7 °C 7.4 °C 1024.0 hPa NW 3.2 km/h   75% 0.0 mm CLR
23:30 11.6 °C 7.3 °C 1024.0 hPa Calm     75% 0.0 mm CLR
23:35 11.6 °C 7.3 °C 1024.0 hPa Calm     75% 0.0 mm CLR
23:40 11.6 °C 7.3 °C 1024.0 hPa Calm     75% 0.0 mm CLR
23:45 11.6 °C 7.5 °C 1024.0 hPa Calm     76% 0.0 mm CLR
23:50 11.6 °C 7.3 °C 1024.1 hPa Calm   5.8 km/h 75% 0.0 mm CLR
23:55 11.6 °C 7.1 °C 1024.1 hPa Calm   5.6 km/h 74% 0.0 mm CLR
Murcia-Puente Tocinos, España
Compliments of Weather Underground - 2.75 mb

La estación de MeteoMurcia.com, publica sus datos en los siguientes proyectos:

Weather Underground PWS IMURCIAP2 Meteoclimatic www.awekas.at

W3Counter
Web Analytics